Погода в Сосновке

Россия / Пензенская область     52°25′05″N   43°30′34″E
темп.,
°C
ветер,
м/с
пор.,
м/с
влажн.,
%
обл.,
%
осадки,
мм/ч
давл.,
гПа
погр.,
м
18 января, пн
пн1800:00−23всв119796 0.0 101820
03:00−23св229598 0.0 101820
06:00−22св3396100 0.0 101938
09:00−21всв2296100 0.0 101994
12:00−18всв2493100 0.0 1019225
15:00−17всв3494100 0.2 1018241
18:00−17св2397100 0.7 1018164
21:00−17всв2297100 0.9 101862
19 января, вт
вт1900:00−17с0097100 0.3 101820
03:00−19ссз1298100 0.4 101820
06:00−21ссз2298100 0.0 101820
09:00−22зюз0110090 0.0 101820
12:00−19з229684 0.0 1018145
15:00−19зюз119791 0.1 101732
18:00−20з2398100 0.1 101741
21:00−20з2398100 0.1 101756
20 января, ср
ср2000:00−20з239897 0.1 101866
03:00−21з239894 0.1 101832
06:00−22з339886 0.0 101944
09:00−23з339980 0.1 102143
12:00−20з349794 0.0 1021159
15:00−19зюз359795 0.1 1022134
18:00−20з359899 0.0 102487
21:00−21з349995 0.0 102540
21 января, чт
чт2100:00−22з339820 0.0 102632
03:00−23зюз339932 0.0 102734
06:00−23зюз339958 0.0 102728
09:00−23юз349857 0.0 102754
12:00−19юз479657 0.0 1027221
15:00−18ююз599458 0.0 1025240
18:00−18ююз6129556 0.0 1024257
21:00−15ююз8179172 0.0 1021364
22 января, пт
пт2200:00−11юз81693100 0.7 1018521
03:00−7юз81694100 1.6 1016599
06:00−1зюз91694100 0.6 1014753
09:00+1з81491100 0.6 1014832
12:00+1з71395100 0.0 1015651
15:00+1зюз71294100 0.0 1015502
18:00+1зюз61194100 0.0 1016395
21:000зюз51195100 0.0 1016367